| time (UTC) | temp F | wind direction | speed knots | gust knots | rain 1hr in | rain 24hr in | rain mn in | humidity % | barometer mb |
| 20260906083105 | 82 | 129 | 2.6 | 5.2 | 0.00 | 0.00 | 0.00 | 42 | 1024.7 |
| 20260906081604 | 80 | 92 | 0.9 | 3.5 | 0.00 | 0.00 | 0.00 | 46 | 1024.5 |
| 20260906080105 | 78 | 0 | 0.9 | 3.5 | 0.00 | 0.00 | 0.00 | 52 | 1024.5 |
| 20260906074602 | 74 | 80 | 0.9 | 2.6 | 0.00 | 0.00 | 0.00 | 55 | 1024.5 |
| 20260906073105 | 68 | 71 | 0.0 | 0.0 | 0.00 | 0.00 | 0.00 | 64 | 1024.5 |
| 20260906071605 | 63 | 0 | 0.0 | 0.0 | 0.00 | 0.00 | 0.00 | 77 | 1024.3 |
| 20260906070107 | 60 | 0 | 0.0 | 0.0 | 0.00 | 0.00 | 0.00 | 80 | 1024.2 |
| 20260906064602 | 58 | 0 | 0.0 | 0.0 | 0.00 | 0.00 | 0.00 | 82 | 1024.3 |
| 20260906063107 | 55 | 0 | 0.0 | 0.0 | 0.00 | 0.00 | 0.00 | 83 | 1024.2 |
| 20260906061607 | 55 | 0 | 0.0 | 0.0 | 0.00 | 0.00 | 0.00 | 81 | 1024.3 |
| 20260906060108 | 54 | 0 | 0.0 | 0.0 | 0.00 | 0.00 | 0.00 | 81 | 1024.3 |
| 20260906054601 | 54 | 0 | 0.0 | 0.0 | 0.00 | 0.00 | 0.00 | 80 | 1024.2 |
| 20260906053106 | 55 | 0 | 0.0 | 0.0 | 0.00 | 0.00 | 0.00 | 80 | 1023.9 |
| 20260906051605 | 55 | 0 | 0.0 | 0.0 | 0.00 | 0.00 | 0.00 | 80 | 1023.9 |
| 20260906050107 | 55 | 0 | 0.0 | 0.0 | 0.00 | 0.00 | 0.00 | 80 | 1023.8 |
| 20260906044605 | 54 | 0 | 0.0 | 0.0 | 0.00 | 0.00 | 0.00 | 81 | 1023.8 |
| 20260906043104 | 54 | 0 | 0.0 | 0.0 | 0.00 | 0.00 | 0.00 | 81 | 1023.8 |
| 20260906041604 | 54 | 0 | 0.0 | 0.0 | 0.00 | 0.00 | 0.00 | 80 | 1023.8 |
| 20260906040106 | 54 | 0 | 0.0 | 0.0 | 0.00 | 0.00 | 0.00 | 81 | 1023.8 |
| 20260906034607 | 54 | 0 | 0.0 | 0.0 | 0.00 | 0.00 | 0.00 | 81 | 1023.8 |
| 20260906033107 | 54 | 0 | 0.0 | 0.0 | 0.00 | 0.00 | 0.00 | 81 | 1023.9 |
| 20260906031604 | 54 | 0 | 0.0 | 0.0 | 0.00 | 0.00 | 0.00 | 80 | 1024.0 |
| 20260906024608 | 54 | 0 | 0.0 | 0.0 | 0.00 | 0.00 | 0.00 | 82 | 1024.1 |
| 20260906023103 | 54 | 0 | 0.0 | 0.0 | 0.00 | 0.00 | 0.00 | 81 | 1024.1 |
| 20260906021607 | 54 | 0 | 0.0 | 0.0 | 0.00 | 0.00 | 0.00 | 81 | 1024.1 |
| 20260906020108 | 54 | 0 | 0.0 | 0.0 | 0.00 | 0.00 | 0.00 | 80 | 1024.2 |
| 20260906014616 | 54 | 0 | 0.0 | 0.0 | 0.00 | 0.00 | 0.00 | 81 | 1024.2 |
| 20260906013108 | 54 | 0 | 0.0 | 0.0 | 0.00 | 0.00 | 0.00 | 80 | 1024.4 |
| 20260906011619 | 54 | 0 | 0.0 | 0.0 | 0.00 | 0.00 | 0.00 | 79 | 1024.6 |
| 20260906010105 | 54 | 0 | 0.0 | 0.0 | 0.00 | 0.00 | 0.00 | 79 | 1024.7 |
| 20260906004605 | 55 | 0 | 0.0 | 0.0 | 0.00 | 0.00 | 0.00 | 78 | 1024.7 |
| 20260906003110 | 55 | 0 | 0.0 | 0.0 | 0.00 | 0.00 | 0.00 | 78 | 1024.8 |
| 20260906001605 | 55 | 0 | 0.0 | 0.0 | 0.00 | 0.00 | 0.00 | 77 | 1024.7 |
| 20260906000108 | 55 | 0 | 0.0 | 0.0 | 0.00 | 0.00 | 0.00 | 77 | 1024.9 |
| 20260905234606 | 56 | 0 | 0.0 | 0.0 | 0.00 | 0.00 | 0.00 | 76 | 1024.9 |
| 20260905233134 | 56 | 0 | 0.0 | 0.0 | 0.00 | 0.00 | 0.00 | 75 | 1024.9 |
| 20260905231610 | 57 | 0 | 0.0 | 0.0 | 0.00 | 0.00 | 0.00 | 74 | 1025.1 |
| 20260905230114 | 57 | 0 | 0.0 | 0.0 | 0.00 | 0.00 | 0.00 | 74 | 1025.2 |
| 20260905224627 | 58 | 0 | 0.0 | 0.0 | 0.00 | 0.00 | 0.00 | 72 | 1025.2 |
| 20260905223108 | 58 | 0 | 0.0 | 0.0 | 0.00 | 0.00 | 0.00 | 71 | 1025.1 |
| 20260905221608 | 59 | 0 | 0.0 | 0.0 | 0.00 | 0.00 | 0.00 | 70 | 1025.3 |
| 20260905220107 | 59 | 0 | 0.0 | 0.0 | 0.00 | 0.00 | 0.00 | 69 | 1025.2 |
| 20260905214605 | 60 | 0 | 0.0 | 0.0 | 0.00 | 0.00 | 0.00 | 69 | 1025.4 |
| 20260905213103 | 60 | 0 | 0.0 | 0.0 | 0.00 | 0.00 | 0.00 | 67 | 1025.6 |
| 20260905211609 | 61 | 0 | 0.0 | 0.0 | 0.00 | 0.00 | 0.00 | 66 | 1025.3 |
| 20260905210108 | 61 | 0 | 0.0 | 0.0 | 0.00 | 0.00 | 0.00 | 65 | 1025.3 |
| 20260905204608 | 62 | 0 | 0.0 | 0.0 | 0.00 | 0.00 | 0.00 | 63 | 1025.4 |
| 20260905203105 | 63 | 0 | 0.0 | 0.0 | 0.00 | 0.00 | 0.00 | 63 | 1025.4 |
| 20260905201616 | 63 | 0 | 0.0 | 0.0 | 0.00 | 0.00 | 0.00 | 61 | 1025.6 |
| 20260905200107 | 65 | 0 | 0.0 | 0.0 | 0.00 | 0.00 | 0.00 | 59 | 1025.7 |
| 20260905194608 | 66 | 0 | 0.0 | 0.0 | 0.00 | 0.00 | 0.00 | 57 | 1025.7 |
| 20260905193104 | 67 | 0 | 0.0 | 0.0 | 0.00 | 0.00 | 0.00 | 54 | 1025.5 |
| 20260905191623 | 68 | 0 | 0.0 | 0.0 | 0.00 | 0.00 | 0.00 | 54 | 1025.5 |
| 20260905190138 | 69 | 0 | 0.0 | 0.0 | 0.00 | 0.00 | 0.00 | 52 | 1025.5 |
| 20260905184623 | 71 | 0 | 0.0 | 0.0 | 0.00 | 0.00 | 0.00 | 49 | 1025.3 |
| 20260905183126 | 73 | 0 | 0.0 | 0.0 | 0.00 | 0.00 | 0.00 | 46 | 1025.2 |
| 20260905181604 | 75 | 0 | 0.0 | 0.0 | 0.00 | 0.00 | 0.00 | 43 | 1025.2 |
| 20260905180108 | 76 | 0 | 0.0 | 0.0 | 0.00 | 0.00 | 0.00 | 42 | 1025.2 |
| 20260905174601 | 77 | 0 | 0.0 | 0.0 | 0.00 | 0.00 | 0.00 | 38 | 1025.2 |
| 20260905173113 | 78 | 0 | 0.0 | 0.0 | 0.00 | 0.00 | 0.00 | 37 | 1025.3 |
| 20260905171607 | 78 | 0 | 0.0 | 0.0 | 0.00 | 0.00 | 0.00 | 36 | 1025.2 |
| 20260905170123 | 79 | 0 | 0.0 | 2.6 | 0.00 | 0.00 | 0.00 | 35 | 1025.2 |
| 20260905164606 | 80 | 0 | 1.7 | 4.3 | 0.00 | 0.00 | 0.00 | 34 | 1025.0 |
| 20260905163112 | 80 | 236 | 0.0 | 2.6 | 0.00 | 0.00 | 0.00 | 31 | 1025.2 |
| 20260905161608 | 80 | 0 | 0.0 | 4.3 | 0.00 | 0.00 | 0.00 | 30 | 1025.2 |
| 20260905160110 | 82 | 0 | 0.9 | 5.2 | 0.00 | 0.00 | 0.00 | 28 | 1025.3 |
| 20260905154609 | 84 | 69 | 0.9 | 5.2 | 0.00 | 0.00 | 0.00 | 28 | 1025.2 |
| 20260905153109 | 85 | 232 | 0.9 | 6.1 | 0.00 | 0.00 | 0.00 | 25 | 1025.3 |
| 20260905151605 | 85 | 170 | 1.7 | 7.0 | 0.00 | 0.00 | 0.00 | 25 | 1025.3 |
| 20260905150105 | 86 | 202 | 0.9 | 8.7 | 0.00 | 0.00 | 0.00 | 27 | 1025.2 |
| 20260905144606 | 86 | 90 | 1.7 | 4.3 | 0.00 | 0.00 | 0.00 | 27 | 1025.4 |
| 20260905143107 | 87 | 0 | 1.7 | 4.3 | 0.00 | 0.00 | 0.00 | 30 | 1025.5 |
| 20260905141630 | 86 | 148 | 0.9 | 6.1 | 0.00 | 0.00 | 0.00 | 31 | 1025.6 |
| 20260905140109 | 86 | 311 | 0.9 | 5.2 | 0.00 | 0.00 | 0.00 | 31 | 1025.7 |
| 20260905134604 | 85 | 239 | 4.3 | 11.3 | 0.00 | 0.00 | 0.00 | 32 | 1025.7 |
| 20260905133105 | 85 | 153 | 1.7 | 5.2 | 0.00 | 0.00 | 0.00 | 35 | 1025.8 |
| 20260905131632 | 84 | 76 | 1.7 | 5.2 | 0.00 | 0.00 | 0.00 | 35 | 1025.9 |
| 20260905130123 | 84 | 114 | 1.7 | 5.2 | 0.00 | 0.00 | 0.00 | 38 | 1026.2 |
| 20260905124605 | 83 | 108 | 2.6 | 7.0 | 0.00 | 0.00 | 0.00 | 40 | 1026.2 |
| 20260905123112 | 83 | 193 | 1.7 | 7.0 | 0.00 | 0.00 | 0.00 | 42 | 1026.3 |
| 20260905121606 | 81 | 148 | 2.6 | 7.0 | 0.00 | 0.00 | 0.00 | 45 | 1026.5 |
| 20260905120109 | 81 | 121 | 2.6 | 8.7 | 0.00 | 0.00 | 0.00 | 46 | 1026.6 |
| 20260905114606 | 81 | 86 | 1.7 | 7.0 | 0.00 | 0.00 | 0.00 | 45 | 1026.7 |
| 20260905113117 | 80 | 153 | 2.6 | 7.0 | 0.00 | 0.00 | 0.00 | 45 | 1026.8 |
| 20260905111606 | 80 | 133 | 2.6 | 7.0 | 0.00 | 0.00 | 0.00 | 46 | 1026.7 |
| 20260905110104 | 80 | 129 | 0.9 | 7.0 | 0.00 | 0.00 | 0.00 | 45 | 1026.7 |
| 20260905104604 | 79 | 127 | 0.9 | 7.0 | 0.00 | 0.00 | 0.00 | 46 | 1026.6 |
| 20260905103108 | 78 | 82 | 1.7 | 7.8 | 0.00 | 0.00 | 0.00 | 46 | 1026.8 |
| 20260905101632 | 78 | 45 | 1.7 | 6.1 | 0.00 | 0.00 | 0.00 | 43 | 1026.9 |
| 20260905100108 | 78 | 229 | 1.7 | 5.2 | 0.00 | 0.00 | 0.00 | 44 | 1026.9 |
| 20260905094604 | 78 | 157 | 2.6 | 7.8 | 0.00 | 0.00 | 0.00 | 43 | 1026.8 |
| 20260905093104 | 78 | 174 | 1.7 | 5.2 | 0.00 | 0.00 | 0.00 | 42 | 1026.9 |
| 20260905091626 | 77 | 68 | 1.7 | 6.1 | 0.00 | 0.00 | 0.00 | 46 | 1026.8 |
| 20260905090105 | 77 | 174 | 0.9 | 4.3 | 0.00 | 0.00 | 0.00 | 49 | 1026.7 |
| 20260905084618 | 75 | 102 | 1.7 | 5.2 | 0.00 | 0.00 | 0.00 | 50 | 1026.6 |